カタログに戻る

FENGYUN 1C DEB

運用中PO
NORAD 30759·DEBRIS·🇨🇳 China

打ち上げ May 10, 1999 から Taiyuan Satellite Launch Center

Loading…

次のパス (今後24時間)

TLE

最新Source: Space-Track

元期: Sep 14, 2026, 08:13 UTC

1 30759U 99025ATV 26257.34289826  .00006475  00000-0  13558-2 0  9999
2 30759  99.2694  40.9264 0007654  69.3353 320.9423 14.60122673 16711

AllMySatでFENGYUN 1C DEBをリアルタイム追跡

Download on the App Store